FW4608 Weather Reports


time (UTC)temp
C
wind
direction
speed
KPH
gust
KPH
rain 1hr
cm
rain 24hr
cm
rain mn
cm
humidity
%
barometer
mb
20260505180032 29 167 1.6 9.7 0.00 0.00 0.00 52 1016.5
20260505175515 29 150 3.2 9.7 0.00 0.00 0.00 54 1016.5
20260505175018 30 110 1.6 8.0 0.00 0.00 0.00 51 1016.6
20260505174523 30 188 1.6 8.0 0.00 0.00 0.00 53 1016.7
20260505174010 30 46 0.0 4.8 0.00 0.00 0.00 55 1016.7
20260505173517 28 233 0.0 6.4 0.00 0.00 0.00 55 1016.7
20260505173012 27 156 0.0 6.4 0.00 0.00 0.00 56 1016.7
20260505172505 28 124 1.6 6.4 0.00 0.00 0.00 51 1016.7
20260505172004 28 284 1.6 4.8 0.00 0.00 0.00 55 1016.7
20260505171505 29 319 0.0 3.2 0.00 0.00 0.00 51 1016.7
20260505171004 29 110 0.0 3.2 0.00 0.00 0.00 52 1016.8
20260505170505 29 152 0.0 4.8 0.00 0.00 0.00 52 1016.9
20260505170100 30 203 0.0 4.8 0.00 0.00 0.00 53 1016.9
20260505170001 29 129 0.0 4.8 0.00 0.00 0.00 55 1016.8
20260505165557 29 103 1.6 4.8 0.00 0.00 0.00 56 1016.9
20260505165057 28 129 0.0 4.8 0.00 0.00 0.00 53 1017.0
20260505164556 28 131 1.6 4.8 0.00 0.00 0.00 55 1017.0
20260505164057 27 96 0.0 4.8 0.00 0.00 0.00 57 1017.0
20260505163554 27 355 0.0 3.2 0.00 0.00 0.00 57 1016.9
20260505163056 27 155 0.0 3.2 0.00 0.00 0.00 59 1017.0
20260505162551 27 285 0.0 1.6 0.00 0.00 0.00 58 1017.1
20260505162053 27 310 0.0 8.0 0.00 0.00 0.00 57 1017.1
20260505161603 27 172 1.6 8.0 0.00 0.00 0.00 54 1017.0
20260505161051 28 329 0.0 3.2 0.00 0.00 0.00 55 1017.0
20260505160550 28 267 0.0 6.4 0.00 0.00 0.00 52 1017.0
20260505153042 27 178 0.0 8.0 0.00 0.00 0.00 60 1017.0
20260505152035 27 168 0.0 6.4 0.00 0.00 0.00 61 1017.1
20260505151552 27 310 0.0 4.8 0.00 0.00 0.00 61 1017.1
20260505151037 26 231 1.6 4.8 0.00 0.00 0.00 60 1017.0
20260505150531 26 207 0.0 3.2 0.00 0.00 0.00 64 1017.1
20260505140556 23 309 0.0 3.2 0.00 0.00 0.00 72 1017.2
20260505140110 23 300 0.0 4.8 0.00 0.00 0.00 71 1017.2
20260505130127 19 146 0.0 1.6 0.00 0.00 0.00 88 1016.8
20260505125028 17 131 0.0 0.0 0.00 0.00 0.00 92 1016.7
20260505124537 17 185 0.0 1.6 0.00 0.00 0.00 94 1016.8
20260505124023 17 263 0.0 1.6 0.00 0.00 0.00 94 1016.8
20260505123625 16 11 0.0 0.0 0.00 0.00 0.00 94 1016.7
20260505123021 16 11 0.0 0.0 0.00 0.00 0.00 94 1016.8
20260505122517 16 11 0.0 0.0 0.00 0.00 0.00 94 1016.9
20260505122022 15 11 0.0 0.0 0.00 0.00 0.00 94 1016.9
20260505121020 15 11 0.0 1.6 0.00 0.00 0.00 94 1016.7
20260505120515 15 10 0.0 0.0 0.00 0.00 0.00 94 1016.5
20260505120017 14 10 0.0 0.0 0.00 0.00 0.00 94 1016.5
20260505115506 14 10 0.0 0.0 0.00 0.00 0.00 94 1016.4
20260505115005 13 10 0.0 0.0 0.00 0.00 0.00 94 1016.3
20260505114504 13 10 0.0 0.0 0.00 0.00 0.00 94 1016.4
20260505114003 13 10 0.0 0.0 0.00 0.00 0.00 93 1016.5
20260505113503 13 10 0.0 0.0 0.00 0.00 0.00 93 1016.5
20260505113003 13 10 0.0 0.0 0.00 0.00 0.00 93 1016.5
20260505112549 13 10 0.0 0.0 0.00 0.00 0.00 93 1016.4
20260505112046 13 10 0.0 0.0 0.00 0.00 0.00 93 1016.4
20260505111546 13 10 0.0 0.0 0.00 0.00 0.00 93 1016.3
20260505111045 13 10 0.0 0.0 0.00 0.00 0.00 93 1016.2
20260505110559 12 10 0.0 0.0 0.00 0.00 0.00 93 1016.2
20260505102037 13 10 0.0 0.0 0.00 0.00 0.00 93 1015.8
20260505101536 13 10 0.0 0.0 0.00 0.00 0.00 92 1015.7
20260505101033 13 10 0.0 0.0 0.00 0.00 0.00 92 1015.7
20260505100531 13 10 0.0 0.0 0.00 0.00 0.00 92 1015.5
20260505100032 13 10 0.0 0.0 0.00 0.00 0.00 92 1015.5
20260505095532 13 10 0.0 0.0 0.00 0.00 0.00 93 1015.4
20260505095033 13 10 0.0 0.0 0.00 0.00 0.00 92 1015.4
20260505094528 13 10 0.0 0.0 0.00 0.00 0.00 92 1015.3
20260505094028 13 10 0.0 0.0 0.00 0.00 0.00 92 1015.3
20260505093526 13 10 0.0 0.0 0.00 0.00 0.00 92 1015.3
20260505093034 13 10 0.0 0.0 0.00 0.00 0.00 92 1015.3
20260505092524 13 10 0.0 0.0 0.00 0.00 0.00 92 1015.2
20260505092021 13 10 0.0 0.0 0.00 0.00 0.00 92 1015.1
20260505091525 13 10 0.0 0.0 0.00 0.00 0.00 92 1015.0
20260505091020 13 10 0.0 0.0 0.00 0.00 0.00 92 1015.0
20260505090525 13 10 0.0 0.0 0.00 0.00 0.00 92 1014.9
20260505090021 13 10 0.0 0.0 0.00 0.00 0.00 92 1015.0
20260505085526 13 10 0.0 0.0 0.00 0.00 0.00 92 1014.9
20260505085020 13 10 0.0 0.0 0.00 0.00 0.00 92 1015.0
20260505084518 13 10 0.0 0.0 0.00 0.00 0.00 92 1014.9
20260505084019 13 10 0.0 0.0 0.00 0.00 0.00 92 1015.0
20260505083517 13 10 0.0 0.0 0.00 0.00 0.00 92 1015.0
20260505083024 13 10 0.0 0.0 0.00 0.00 0.00 92 1014.9
20260505082516 13 10 0.0 0.0 0.00 0.00 0.00 92 1014.9
20260505082014 13 10 0.0 0.0 0.00 0.00 0.00 92 1014.9
20260505081614 13 10 0.0 0.0 0.00 0.00 0.00 92 1014.7
20260505081015 13 10 0.0 0.0 0.00 0.00 0.00 92 1014.6
20260505080511 13 10 0.0 0.0 0.00 0.00 0.00 92 1014.7
20260505080009 13 10 0.0 0.0 0.00 0.00 0.00 92 1014.8
20260505075510 13 10 0.0 0.0 0.00 0.00 0.00 92 1014.9
20260505075008 13 10 0.0 0.0 0.00 0.00 0.00 92 1014.9
20260505074508 13 10 0.0 0.0 0.00 0.00 0.00 91 1015.0
20260505074010 13 10 0.0 0.0 0.00 0.00 0.00 91 1015.0
20260505073510 13 10 0.0 0.0 0.00 0.00 0.00 91 1015.0
20260505073005 13 10 0.0 0.0 0.00 0.00 0.00 91 1015.0
20260505072507 13 10 0.0 0.0 0.00 0.00 0.00 91 1015.1
20260505072002 13 10 0.0 0.0 0.00 0.00 0.00 91 1015.1
20260505071502 13 10 0.0 0.0 0.00 0.00 0.00 91 1015.2
20260505071103 13 10 0.0 0.0 0.00 0.00 0.00 91 1015.2
20260505070601 13 10 0.0 0.0 0.00 0.00 0.00 91 1015.3
20260505070100 13 10 0.0 0.0 0.00 0.00 0.00 91 1015.2
20260505065600 14 10 0.0 0.0 0.00 0.00 0.00 91 1015.3
20260505065011 14 10 0.0 0.0 0.00 0.00 0.00 91 1015.4
20260505064552 14 10 0.0 0.0 0.00 0.00 0.00 90 1015.2
20260505064053 14 10 0.0 0.0 0.00 0.00 0.00 90 1015.3
20260505063553 14 10 0.0 0.0 0.00 0.00 0.00 90 1015.3
20260505063119 14 10 0.0 0.0 0.00 0.00 0.00 90 1015.3
20260505062548 14 10 0.0 0.0 0.00 0.00 0.00 90 1015.5
20260505062047 14 10 0.0 0.0 0.00 0.00 0.00 90 1015.7
20260505061612 14 10 0.0 0.0 0.00 0.00 0.00 90 1015.8
20260505061045 14 10 0.0 0.0 0.00 0.00 0.00 90 1015.9
20260505060546 14 10 0.0 0.0 0.00 0.00 0.00 90 1016.0
20260505060048 14 10 0.0 0.0 0.00 0.00 0.00 89 1016.0
20260505055542 14 10 0.0 0.0 0.00 0.00 0.00 89 1016.0
20260505055041 14 10 0.0 0.0 0.00 0.00 0.00 89 1016.0
20260505054544 15 10 0.0 0.0 0.00 0.00 0.00 89 1016.1
20260505054037 15 10 0.0 0.0 0.00 0.00 0.00 89 1016.1
20260505053539 15 10 0.0 0.0 0.00 0.00 0.00 89 1016.3
20260505053042 15 10 0.0 0.0 0.00 0.00 0.00 89 1016.4
20260505052536 15 10 0.0 0.0 0.00 0.00 0.00 89 1016.4
20260505052042 15 10 0.0 0.0 0.00 0.00 0.00 89 1016.5
20260505051555 15 10 0.0 0.0 0.00 0.00 0.00 89 1016.6
20260505051138 15 10 0.0 0.0 0.00 0.00 0.00 89 1016.6
20260505050529 15 10 0.0 0.0 0.00 0.00 0.00 89 1016.8
20260505041518 16 10 0.0 0.0 0.00 0.00 0.00 86 1016.9
20260505041015 16 10 0.0 0.0 0.00 0.00 0.00 86 1017.0
20260505040513 16 10 0.0 0.0 0.00 0.00 0.00 86 1016.9
20260505040016 16 10 0.0 0.0 0.00 0.00 0.00 86 1016.8
20260505035512 16 10 0.0 0.0 0.00 0.00 0.00 86 1016.8
20260505035010 16 10 0.0 0.0 0.00 0.00 0.00 86 1016.8
20260505034514 16 10 0.0 0.0 0.00 0.00 0.00 85 1016.7
20260505034011 16 10 0.0 0.0 0.00 0.00 0.00 85 1016.8
20260505033513 16 10 0.0 0.0 0.00 0.00 0.00 85 1016.9
20260505033010 16 10 0.0 0.0 0.00 0.00 0.00 85 1016.8
20260505032506 16 10 0.0 0.0 0.00 0.00 0.00 84 1016.8
20260505032005 16 10 0.0 0.0 0.00 0.00 0.00 84 1016.9
20260505031505 17 10 0.0 0.0 0.00 0.00 0.00 84 1016.9
20260505031005 17 10 0.0 0.0 0.00 0.00 0.00 84 1016.9
20260505030504 17 10 0.0 0.0 0.00 0.00 0.00 84 1016.8
20260505030004 17 10 0.0 0.0 0.00 0.00 0.00 84 1016.7
20260505025507 17 10 0.0 0.0 0.00 0.00 0.00 83 1016.6
20260505025118 17 10 0.0 0.0 0.00 0.00 0.00 83 1016.6
20260505024608 17 10 0.0 1.6 0.00 0.00 0.00 83 1016.5
20260505024059 17 357 0.0 1.6 0.00 0.00 0.00 83 1016.4
20260505023559 17 5 0.0 1.6 0.00 0.00 0.00 83 1016.4
20260505023059 17 5 0.0 1.6 0.00 0.00 0.00 83 1016.5
20260505022557 17 5 0.0 0.0 0.00 0.00 0.00 83 1016.5
20260505022502 17 5 0.0 0.0 0.00 0.00 0.00 83 1016.5
20260505022056 17 6 0.0 0.0 0.00 0.00 0.00 82 1016.6
20260505021556 17 5 0.0 0.0 0.00 0.00 0.00 82 1016.7
20260505021058 17 5 0.0 0.0 0.00 0.00 0.00 82 1016.6
20260505020555 17 6 0.0 0.0 0.00 0.00 0.00 81 1016.6
20260505015553 18 5 0.0 1.6 0.00 0.00 0.00 79 1016.7
20260505015502 18 5 0.0 1.6 0.00 0.00 0.00 80 1016.7
20260505015056 18 5 0.0 1.6 0.00 0.00 0.00 79 1016.7
20260505014555 18 5 0.0 0.0 0.00 0.00 0.00 79 1016.6
20260505014052 18 5 0.0 1.6 0.00 0.00 0.00 78 1016.8
20260505013551 18 5 0.0 1.6 0.00 0.00 0.00 78 1016.7
20260505013153 18 157 0.0 0.0 0.00 0.00 0.00 78 1016.7
20260505012549 19 151 0.0 1.6 0.00 0.00 0.00 77 1016.6
20260505012051 19 151 0.0 1.6 0.00 0.00 0.00 77 1016.7
20260505011553 19 139 0.0 1.6 0.00 0.00 0.00 76 1016.7
20260505011046 19 139 0.0 3.2 0.00 0.00 0.00 76 1016.7
20260505010544 20 223 0.0 3.2 0.00 0.00 0.00 76 1016.6
20260505010058 20 340 0.0 1.6 0.00 0.00 0.00 75 1016.4
20260505005043 20 285 0.0 1.6 0.00 0.00 0.00 74 1016.5
20260505004541 20 235 0.0 1.6 0.00 0.00 0.00 74 1016.4
20260505004039 20 348 0.0 8.0 0.00 0.00 0.00 74 1016.4
20260505003538 20 115 0.0 8.0 0.00 0.00 0.00 74 1016.4
20260505003041 20 276 0.0 3.2 0.00 0.00 0.00 74 1016.4
20260505002538 20 333 0.0 3.2 0.00 0.00 0.00 73 1016.4
20260505002039 21 356 0.0 3.2 0.00 0.00 0.00 73 1016.3
20260505001538 21 316 0.0 3.2 0.00 0.00 0.00 72 1016.3
20260505001037 21 159 0.0 3.2 0.00 0.00 0.00 71 1016.3
20260505000537 21 156 0.0 4.8 0.00 0.00 0.00 71 1016.2
20260505000044 21 233 1.6 4.8 0.00 0.00 0.00 71 1016.1
20260504235534 21 135 0.0 4.8 0.00 0.00 0.00 70 1016.1
20260504235033 21 143 0.0 6.4 0.00 0.00 0.00 70 1016.0
20260504234535 21 210 0.0 8.0 0.00 0.00 0.00 69 1016.0
20260504234031 22 11 0.0 9.7 0.00 0.00 0.00 69 1015.8
20260504233530 22 129 1.6 12.9 0.00 0.00 0.00 68 1015.8
20260504233030 22 102 1.6 12.9 0.00 0.00 0.00 67 1015.8
20260504232532 22 276 1.6 19.3 0.00 0.00 0.00 67 1015.8
20260504232029 22 204 1.6 19.3 0.00 0.00 0.00 66 1015.8
20260504231530 23 13 1.6 6.4 0.00 0.00 0.00 65 1015.7
20260504231029 23 190 0.0 6.4 0.00 0.00 0.00 64 1015.5
20260504230534 23 300 0.0 4.8 0.00 0.00 0.00 63 1015.5
20260504230025 24 93 0.0 4.8 0.00 0.00 0.00 63 1015.5
20260504225526 23 80 0.0 8.0 0.00 0.00 0.00 64 1015.6
20260504225030 23 96 1.6 11.3 0.00 0.00 0.00 64 1015.6
20260504224524 23 62 1.6 11.3 0.00 0.00 0.00 64 1015.6
20260504224023 23 105 1.6 8.0 0.00 0.00 0.00 64 1015.6
20260504223524 23 252 0.0 9.7 0.00 0.00 0.00 64 1015.6
20260504223022 24 341 1.6 9.7 0.00 0.00 0.00 63 1015.7
20260504222521 24 18 1.6 6.4 0.00 0.00 0.00 63 1015.6
20260504222019 24 89 0.0 8.0 0.00 0.00 0.00 64 1015.8
20260504221520 24 98 0.0 8.0 0.00 0.00 0.00 62 1015.9
20260504221020 25 286 1.6 6.4 0.00 0.00 0.00 63 1015.9
20260504220520 25 75 0.0 8.0 0.00 0.00 0.00 61 1015.8
20260504220018 25 99 1.6 8.0 0.00 0.00 0.00 59 1015.8
20260504215515 25 266 0.0 6.4 0.00 0.00 0.00 60 1015.8
20260504215016 25 250 0.0 8.0 0.00 0.00 0.00 60 1015.6
20260504214514 25 244 3.2 11.3 0.00 0.00 0.00 58 1015.7
20260504214020 26 326 1.6 11.3 0.00 0.00 0.00 57 1015.5
20260504213512 26 134 0.0 6.4 0.00 0.00 0.00 58 1015.8
20260504213017 26 304 0.0 6.4 0.00 0.00 0.00 58 1015.7
20260504212511 26 129 0.0 8.0 0.00 0.00 0.00 60 1015.8
20260504212009 25 158 1.6 8.0 0.00 0.00 0.00 58 1016.1
20260504211507 25 145 0.0 6.4 0.00 0.00 0.00 58 1016.0
20260504211007 25 157 0.0 9.7 0.00 0.00 0.00 57 1015.9
20260504210507 25 239 0.0 6.4 0.00 0.00 0.00 57 1016.0
20260504210011 26 108 1.6 6.4 0.00 0.00 0.00 54 1016.1
20260504205509 26 243 0.0 11.3 0.00 0.00 0.00 56 1016.1
20260504205002 26 207 1.6 8.0 0.00 0.00 0.00 55 1016.2
20260504204504 27 100 0.0 8.0 0.00 0.00 0.00 54 1016.1
20260504204003 26 145 1.6 8.0 0.00 0.00 0.00 56 1016.2
20260504203506 26 117 0.0 8.0 0.00 0.00 0.00 54 1016.1
20260504203110 26 296 0.0 8.0 0.00 0.00 0.00 51 1016.1
20260504202600 27 309 1.6 8.0 0.00 0.00 0.00 52 1016.2
20260504202001 26 65 1.6 11.3 0.00 0.00 0.00 53 1016.2
20260504201600 27 319 3.2 11.3 0.00 0.00 0.00 52 1016.2
20260504201506 27 136 1.6 11.3 0.00 0.00 0.00 54 1016.1
20260504201102 27 161 1.6 6.4 0.00 0.00 0.00 52 1016.2
20260504200612 27 30 1.6 6.4 0.00 0.00 0.00 51 1016.2
20260504200058 26 129 1.6 11.3 0.00 0.00 0.00 52 1016.2
20260504195556 27 157 3.2 11.3 0.00 0.00 0.00 52 1016.4
20260504195053 26 18 1.6 9.7 0.00 0.00 0.00 50 1016.4
20260504194601 27 83 1.6 8.0 0.00 0.00 0.00 51 1016.3
20260504194051 27 83 0.0 8.0 0.00 0.00 0.00 51 1016.6
20260504193550 27 225 3.2 9.7 0.00 0.00 0.00 50 1016.5
20260504193049 27 268 1.6 11.3 0.00 0.00 0.00 50 1016.6
20260504192043 28 110 3.2 9.7 0.00 0.00 0.00 49 1016.7
20260504191545 28 241 1.6 11.3 0.00 0.00 0.00 47 1016.5
20260504191042 28 278 1.6 11.3 0.00 0.00 0.00 49 1016.7
20260504190542 28 122 0.0 8.0 0.00 0.00 0.00 49 1016.7
20260504190042 28 109 1.6 6.4 0.00 0.00 0.00 47 1016.7
20260504185534 28 311 0.0 9.7 0.00 0.00 0.00 48 1016.9
20260504185029 28 119 0.0 9.7 0.00 0.00 0.00 50 1016.9
20260504184629 28 229 3.2 9.7 0.00 0.00 0.00 47 1017.0
20260504184029 27 323 1.6 9.7 0.00 0.00 0.00 47 1017.0
20260504183525 27 279 3.2 8.0 0.00 0.00 0.00 45 1017.0
20260504183033 27 101 1.6 6.4 0.00 0.00 0.00 44 1017.1
20260504182531 28 281 1.6 6.4 0.00 0.00 0.00 42 1017.1
20260504182026 28 91 1.6 9.7 0.00 0.00 0.00 44 1017.2
20260504181525 27 323 1.6 9.7 0.00 0.00 0.00 43 1017.2
20260504181024 27 333 1.6 9.7 0.00 0.00 0.00 45 1017.2
20260504180523 28 290 1.6 9.7 0.00 0.00 0.00 46 1017.1